Weather History for KZPH - February, 2013

Change the Weather History Date:

Sunday, February 24, 2013

  Actual Average (KPCM) Record (KPCM)
Temperature  
Mean Temperature 70 °F -  
Max Temperature 75 °F 74 °F 90 °F (1962)
Min Temperature 64 °F 49 °F 30 °F (1939)
Cooling Degree Days 4    
Growing Degree Days 20 (Base 50)    
Moisture  
Dew Point 69 °F    
Average Humidity 98    
Maximum Humidity 100    
Minimum Humidity 83    
Precipitation  
Precipitation 0.01 in - - ()
Sea Level Pressure  
Sea Level Pressure 29.96 in    
Wind  
Wind Speed 5 mph (SW)    
Max Wind Speed 10 mph    
Max Gust Speed -    
Visibility 7 miles    
Events Rain    
Averages and records for this station are not official NWS values.
T = Trace of Precipitation, MM = Missing Value Source: NWS Daily Summary

Daily Weather History Graph

Daily Weather History Graph

Search for Another Location

Airport or City:

Trip Planner

Search our weather history database for the weather conditions in past years. The results will help you decide how hot, cold, wet, or windy it might be!

Date:

Astronomy

Feb. 24, 2013 Rise Set
Actual Time 6:58 AM EST 6:25 PM EST
Civil Twilight 6:34 AM EST 6:49 PM EST
Nautical Twilight 6:07 AM EST 7:16 PM EST
Astronomical Twilight 5:39 AM EST 7:44 PM EST
Moon 5:35 PM EST (2/24) 5:52 AM EST (2/24)
Length of Visible Light 12h 15m
Length of Day
11h 27m
Waxing Gibbous, 99% of the Moon is Illuminated
Feb 24
Waxing Gibbous
Feb 25
Full
Mar 4
Last Quarter
Mar 11
New
Mar 19
First Quarter

Hourly Weather History & Observations

Time (EST) Temp. Dew Point Humidity Pressure Visibility Wind Dir Wind Speed Gust Speed Precip Events Conditions
12:15 AM 68.0 °F 68.0 °F 100% 29.96 in 3.0 mi SSW 4.6 mph - N/A   Overcast
12:35 AM 68.0 °F 68.0 °F 100% 29.95 in 3.0 mi SSW 4.6 mph - N/A   Overcast
12:55 AM 66.2 °F 66.2 °F 100% 29.95 in 3.0 mi SW 5.8 mph - N/A   Overcast
1:15 AM 66.2 °F 66.2 °F 100% 29.95 in 3.0 mi SSW 5.8 mph - N/A   Overcast
1:35 AM 66.2 °F 66.2 °F 100% 29.95 in 4.0 mi SW 8.1 mph - N/A   Overcast
1:55 AM 68.0 °F 68.0 °F 100% 29.95 in 4.0 mi SW 5.8 mph - N/A   Overcast
2:15 AM 68.0 °F 68.0 °F 100% 29.94 in 4.0 mi SSW 4.6 mph - N/A   Overcast
2:35 AM 68.0 °F 68.0 °F 100% 29.93 in 4.0 mi SSW 6.9 mph - N/A   Overcast
2:55 AM 68.0 °F 68.0 °F 100% 29.93 in 4.0 mi SSW 8.1 mph - N/A   Overcast
3:15 AM 68.0 °F 68.0 °F 100% 29.91 in 4.0 mi South 8.1 mph - N/A   Overcast
3:35 AM 68.0 °F 68.0 °F 100% 29.91 in 4.0 mi South 5.8 mph - N/A   Overcast
3:55 AM 68.0 °F 68.0 °F 100% 29.91 in 4.0 mi SSW 5.8 mph - N/A   Overcast
4:15 AM 68.0 °F 68.0 °F 100% 29.93 in 4.0 mi WSW 5.8 mph - N/A   Overcast
4:35 AM 68.0 °F 68.0 °F 100% 29.93 in 4.0 mi WSW 3.5 mph - N/A   Overcast
4:55 AM 68.0 °F 68.0 °F 100% 29.93 in 4.0 mi SW 4.6 mph - N/A   Overcast
5:15 AM 68.0 °F 68.0 °F 100% 29.93 in 5.0 mi SW 4.6 mph - N/A   Overcast
5:35 AM 68.0 °F 68.0 °F 100% 29.94 in 5.0 mi SW 4.6 mph - N/A   Overcast
5:55 AM 68.0 °F 68.0 °F 100% 29.95 in 5.0 mi WSW 5.8 mph - N/A   Overcast
6:15 AM 68.0 °F 68.0 °F 100% 29.95 in 5.0 mi SW 4.6 mph - N/A   Overcast
6:35 AM 68.0 °F 68.0 °F 100% 29.95 in 5.0 mi SSW 6.9 mph - N/A   Overcast
6:55 AM 68.0 °F 68.0 °F 100% 29.96 in 5.0 mi SSW 6.9 mph - N/A   Overcast
7:15 AM 69.8 °F 69.8 °F 100% 29.96 in 5.0 mi SSW 8.1 mph - N/A   Overcast
7:35 AM 69.8 °F 69.8 °F 100% 29.96 in 5.0 mi SW 5.8 mph - N/A   Overcast
7:55 AM 69.8 °F 69.8 °F 100% 29.97 in 5.0 mi SW 6.9 mph - N/A   Overcast
8:15 AM 69.8 °F 69.8 °F 100% 29.97 in 4.0 mi SW 9.2 mph - N/A   Overcast
8:35 AM 69.8 °F 69.8 °F 100% 29.98 in 4.0 mi SSW 9.2 mph - N/A   Overcast
8:55 AM 69.8 °F 69.8 °F 100% 29.98 in 5.0 mi SW 10.4 mph - N/A   Overcast
9:15 AM 71.6 °F 71.6 °F 100% 29.97 in 7.0 mi SSW 9.2 mph - N/A   Overcast
9:35 AM 71.6 °F 71.6 °F 100% 29.98 in 10.0 mi SW 6.9 mph - N/A   Overcast
9:55 AM 71.6 °F 71.6 °F 100% 29.99 in 7.0 mi SW 8.1 mph - N/A   Overcast
10:15 AM 71.6 °F 71.6 °F 100% 30.00 in 10.0 mi West 8.1 mph - N/A   Overcast
10:35 AM 73.4 °F 71.6 °F 94% 29.98 in 10.0 mi SW 6.9 mph - N/A   Overcast
10:55 AM 73.4 °F 69.8 °F 88% 30.00 in 10.0 mi West 5.8 mph - N/A   Overcast
11:15 AM 71.6 °F 69.8 °F 94% 30.00 in 10.0 mi West 3.5 mph - N/A   Overcast
11:35 AM 71.6 °F 71.6 °F 100% 29.99 in 10.0 mi Calm Calm - N/A   Mostly Cloudy
11:55 AM 73.4 °F 71.6 °F 94% 29.99 in 10.0 mi West 4.6 mph - N/A   Mostly Cloudy
12:15 PM 75.2 °F 69.8 °F 83% 29.98 in 10.0 mi WSW 5.8 mph - N/A   Overcast
12:35 PM 73.4 °F 69.8 °F 88% 29.98 in 10.0 mi West 8.1 mph - N/A   Light Drizzle
12:55 PM 73.4 °F 71.6 °F 94% 29.98 in 10.0 mi West 5.8 mph - N/A   Overcast
1:15 PM 73.4 °F 71.6 °F 94% 29.97 in 10.0 mi West 6.9 mph - 0.01 in   Mostly Cloudy
1:35 PM 73.4 °F 73.4 °F 100% 29.96 in 10.0 mi West 6.9 mph - 0.01 in Rain Light Rain
1:55 PM 73.4 °F 71.6 °F 94% 29.96 in 10.0 mi WNW 8.1 mph - 0.01 in   Scattered Clouds
2:15 PM 71.6 °F 71.6 °F 100% 29.97 in 10.0 mi WNW 8.1 mph - N/A Rain Light Rain
2:35 PM 71.6 °F 71.6 °F 100% 29.96 in 10.0 mi NW 5.8 mph - N/A   Scattered Clouds
2:55 PM 71.6 °F 71.6 °F 100% 29.95 in 10.0 mi WNW 6.9 mph - N/A   Scattered Clouds
3:15 PM 71.6 °F 71.6 °F 100% 29.95 in 10.0 mi WNW 4.6 mph - N/A   Scattered Clouds
3:35 PM 71.6 °F 71.6 °F 100% 29.95 in 10.0 mi NW 5.8 mph - N/A   Mostly Cloudy
3:55 PM 71.6 °F 71.6 °F 100% 29.94 in 10.0 mi Calm Calm - N/A   Mostly Cloudy
4:15 PM 73.4 °F 71.6 °F 94% 29.94 in 10.0 mi NW 3.5 mph - N/A   Mostly Cloudy
4:35 PM 73.4 °F 71.6 °F 94% 29.93 in 10.0 mi NW 3.5 mph - N/A   Scattered Clouds
4:55 PM 73.4 °F 71.6 °F 94% 29.94 in 10.0 mi Calm Calm - N/A   Scattered Clouds
5:15 PM 73.4 °F 71.6 °F 94% 29.94 in 10.0 mi Calm Calm - N/A   Clear
5:35 PM 73.4 °F 71.6 °F 94% 29.95 in 10.0 mi Calm Calm - N/A   Clear
5:55 PM 71.6 °F 71.6 °F 100% 29.93 in 10.0 mi Calm Calm - N/A   Clear
6:15 PM 71.6 °F 69.8 °F 94% 29.94 in 10.0 mi Calm Calm - N/A   Clear
6:35 PM 69.8 °F 69.8 °F 100% 29.95 in 10.0 mi Calm Calm - N/A   Clear
6:55 PM 69.8 °F 69.8 °F 100% 29.95 in 7.0 mi Calm Calm - N/A   Clear
7:15 PM 68.0 °F 68.0 °F 100% 29.96 in 5.0 mi Calm Calm - N/A   Clear
7:35 PM 68.0 °F 68.0 °F 100% 29.97 in 5.0 mi Calm Calm - N/A   Scattered Clouds
7:55 PM 66.2 °F 66.2 °F 100% 29.97 in 1.8 mi Calm Calm - N/A   Mist
8:15 PM 66.2 °F 66.2 °F 100% 29.97 in 2.5 mi Calm Calm - N/A   Clear
8:35 PM 66.2 °F 66.2 °F 100% 29.97 in 1.5 mi Calm Calm - N/A   Mist
8:55 PM 64.4 °F 64.4 °F 100% 29.97 in 1.8 mi Calm Calm - N/A   Mist
9:15 PM 64.4 °F 64.4 °F 100% 29.97 in 2.5 mi Calm Calm - N/A   Scattered Clouds
9:35 PM 64.4 °F 64.4 °F 100% 29.97 in 3.0 mi Calm Calm - N/A   Overcast
9:55 PM 64.4 °F 64.4 °F 100% 29.97 in 5.0 mi ESE 3.5 mph - N/A   Overcast
10:15 PM 66.2 °F 66.2 °F 100% 29.96 in 7.0 mi East 4.6 mph - N/A   Overcast
10:35 PM 66.2 °F 66.2 °F 100% 29.95 in 10.0 mi East 6.9 mph - N/A   Overcast
10:55 PM 66.2 °F 66.2 °F 100% 29.95 in 7.0 mi East 6.9 mph - N/A   Overcast
11:15 PM 66.2 °F 66.2 °F 100% 29.95 in 7.0 mi East 9.2 mph - N/A   Mostly Cloudy
11:35 PM 66.2 °F 66.2 °F 100% 29.96 in 7.0 mi East 4.6 mph - N/A   Mostly Cloudy
11:55 PM 64.4 °F 64.4 °F 100% 29.94 in 10.0 mi ESE 8.1 mph - N/A   Overcast